Location: ???????
(55.4362°N, 38.1183°E)
Time: 14:05:52
(UTC+00:00)

Cosmos 372 Rocket - Pass Details

Date: 23 October 2021
Orbit: 738 x 768 km, 74.1° (Epoch: 04 December)

Event Time Altitude Azimuth Distance (km) Brightness Sun altitude
Rises 15:09:24 0° 236° (WSW) 3,172 8.5 -9.2°
Reaches altitude 10° 15:11:57 10° 246° (WSW) 2,250 7.8 -9.6°
Maximum altitude 15:16:36 35° 312° (NW) 1,191 5.5 -10.2°
Drops below altitude 10° 15:21:17 10° 18° (NNE) 2,260 6.2 -10.9°
Sets 15:23:50 0° 27° (NNE) 3,188 6.9 -11.3°
